066  
NZUS99 KIND 261209  
HRRIND  
 
WEATHER ROUNDUP FOR INDIANA AND SURROUNDING STATES  
NATIONAL WEATHER SERVICE INDIANAPOLIS IN  
800 AM EDT TUE MAR 26 2019  
   
..INDIANA
 
 
 
CITY SKY/WX TMP DP RH WIND PRES REMARKS  
INDIANAPOLIS FAIR 28 19 69 NE7 30.38R WCI 21  
6HR MIN TEMP: 27; 6HR MAX TEMP: 35;  
 
EAGLE CREEK FAIR 28 19 69 N3 30.37R  
6HR MIN TEMP: 27; 6HR MAX TEMP: 33;  
 
ZIONSVILLE FAIR 24 22 93 N6 30.39R WCI 17  
6HR MIN TEMP: 24; 6HR MAX TEMP: 30;  
 
ANDERSON CLEAR 27 19 74 CALM 30.39R  
MOUNT COMFORT FAIR 25 23 93 N5 30.38R WCI 19  
SHELBYVILLE FAIR 29 19 66 N7 30.37R WCI 22  
6HR MIN TEMP: 28; 6HR MAX TEMP: 34;  
 

 
 
CITY SKY/WX TMP DP RH WIND PRES REMARKS  
LAFAYETTE FAIR 27 17 66 NE7 30.41R WCI 19  
6HR MIN TEMP: 23; 6HR MAX TEMP: 30;  
 
KOKOMO FAIR 27 18 69 NE8 30.40R WCI 19  
6HR MIN TEMP: 25; 6HR MAX TEMP: 31;  
 
FRANKFORT FAIR 30 20 66 NE8 30.40R WCI 22  
6HR MIN TEMP: 29; 6HR MAX TEMP: 33;  
 
CRAWFORDSVILLE FAIR 24 20 85 NE5 30.39R WCI 18  
6HR MIN TEMP: 23; 6HR MAX TEMP: 30;  
 
MUNCIE FAIR 26 17 68 NE5 30.38R WCI 20  
6HR MIN TEMP: 25; 6HR MAX TEMP: 33;  
 
GREENCASTLE FAIR 28 21 74 CALM 30.37S  
TERRE HAUTE FAIR 28 22 78 N5 30.39R WCI 23  
6HR MIN TEMP: 27; 6HR MAX TEMP: 35;  
 
BLOOMINGTON FAIR 30 16 56 NE5 30.35R WCI 25  
6HR MIN TEMP: 30; 6HR MAX TEMP: 33;  
 
COLUMBUS CLEAR 27 18 69 N5 30.38R WCI 21  
BEDFORD FAIR 30 18 59 NE6 30.35R WCI 24  
SEYMOUR FAIR 32 21 64 N6 30.37R WCI 26  
NORTH VERNON FAIR 27 18 69 N5 30.36R WCI 21  

 
 
CITY SKY/WX TMP DP RH WIND PRES REMARKS  
GARY CLEAR 34 19 55 NE9 30.44R WCI 26  
VALPARAISO FAIR 26 8 46 NE5 30.43R WCI 20  
6HR MIN TEMP: 26; 6HR MAX TEMP: 32;  
 
LA PORTE FAIR 27 8 43 NE5 30.43R WCI 22  
6HR MIN TEMP: 22; 6HR MAX TEMP: 30;  
 
MICHIGAN CITY FAIR 23 19 86 CALM 30.44S  
SOUTH BEND FAIR 23 8 52 NE3 30.43R  
6HR MIN TEMP: 19; 6HR MAX TEMP: 28;  
 
GOSHEN FAIR 26 11 52 NE6 30.42R WCI 19  
6HR MIN TEMP: 26; 6HR MAX TEMP: 30;  
 
ANGOLA FAIR 27 9 46 NE6 30.41R WCI 20  
KENDALLVILLE FAIR 26 7 44 NE7 30.41R WCI 18  
AUBURN FAIR 27 14 59 N5 30.42R WCI 21  
RENSSELAER FAIR 27 18 69 CALM 30.42R  
KNOX FAIR 25 12 58 N6 30.43R WCI 18  
PLYMOUTH CLEAR 27 9 46 E3 30.42R  
ROCHESTER FAIR 28 10 47 CALM 30.42R  
WARSAW FAIR 28 10 47 NE8 30.42R WCI 20  
FORT WAYNE FAIR 28 14 55 N7 30.40R WCI 21  
6HR MIN TEMP: 27; 6HR MAX TEMP: 32;  
 
MONTICELLO FAIR 28 12 52 NE5 30.42R WCI 22  
6HR MIN TEMP: 26; 6HR MAX TEMP: 29;  
 
LOGANSPORT FAIR 27 14 59 N3 30.41R  
PERU/GRISSOM FAIR 24 14 67 NE8 30.40R WCI 15  
6HR MIN TEMP: 23; 6HR MAX TEMP: 31;  
 
HUNTINGTON FAIR 25 10 53 N5 30.40R WCI 19  
6HR MIN TEMP: 25; 6HR MAX TEMP: 30;  
 
MARION FAIR 27 13 56 CALM 30.40R  
PORTLAND FAIR 27 21 80 CALM 30.38S  
RICHMOND FAIR 27 19 74 NE6 30.36R WCI 20  
BATESVILLE CLEAR 27 18 69 NE5 30.36R WCI 21  
WASHINGTON FAIR 30 24 80 N5 30.36R WCI 25  
6HR MIN TEMP: 30; 6HR MAX TEMP: 37;  
 
FRENCH LICK FAIR 32 10 40 NE7 30.34R WCI 26  
MADISON FAIR 30 19 64 NE8 30.36R WCI 23  
HUNTINGBURG FAIR 32 19 58 NE8 30.35R WCI 25  
6HR MIN TEMP: 32; 6HR MAX TEMP: 39;  
 
JEFFERSONVILLE FAIR 30 22 69 N7 30.35R WCI 24  
6HR MIN TEMP: 29; 6HR MAX TEMP: 36;  
 
EVANSVILLE FAIR 33 24 69 NE8 30.36R WCI 26  
6HR MIN TEMP: 32; 6HR MAX TEMP: 40;  
 

 
   
..ILLINOIS
 
 
 
CITY SKY/WX TMP DP RH WIND PRES REMARKS  
CHICAGO FAIR 26 19 74 N5 30.43R WCI 20  
MOLINE FAIR 25 20 81 CALM 30.43R  
ROCKFORD FAIR 22 15 75 NE3 30.44R  
KANKAKEE FAIR 27 22 83 NE6 30.43R WCI 20  
PEORIA FAIR 25 11 55 NE5 30.43R WCI 19  
BLOOMINGTON FAIR 23 16 74 NE6 30.41R WCI 16  
CHAMPAIGN FAIR 28 20 71 NE12 30.39R WCI 18  
RANTOUL FAIR 27 22 84 NE6 30.41R WCI 20  
DANVILLE FAIR 27 20 77 NE6 30.37S WCI 20  
QUINCY CLEAR 30 13 49 E7 30.41R WCI 23  
SPRINGFIELD FAIR 26 19 74 N5 30.41R WCI 20  
DECATUR FAIR 25 20 81 NE5 30.40R WCI 19  
MATTOON FAIR 26 24 92 NE6 30.38R WCI 19  
PARIS FAIR 29 24 82 NE3 30.40R  
EFFINGHAM FAIR 31 23 73 N3 30.40R  
ROBINSON FAIR 28 24 83 N5 30.40R WCI 23  
OLNEY FAIR 31 28 86 NE5 30.38R WCI 27  
LAWRENCEVILLE FAIR 31 25 78 NE8 30.38R WCI 23  
MOUNT VERNON FAIR 32 27 81 NE3 30.38R  
FAIRFIELD FAIR 32 28 86 N3 30.36R  
MOUNT CARMEL FAIR 32 27 81 NE8 30.37R WCI 25  
CARMI FAIR 34 30 86 N6 30.36R WCI 29  

 
   
..KENTUCKY
 
 
 
CITY SKY/WX TMP DP RH WIND PRES REMARKS  
LOUISVILLE FAIR 33 16 49 N7 30.34R WCI 27  
PADUCAH FAIR 40 24 53 NE8 30.32R WCI 34  
OWENSBORO FAIR 36 21 54 NE7 30.34R WCI 30  
FORT KNOX FAIR 32 15 48 NE9 30.32R WCI 24  
LEXINGTON FAIR 29 18 63 NE9 30.29R WCI 20  
BOWLING GREEN FAIR 36 18 48 N5 30.30R WCI 32  
JACKSON FAIR 29 17 61 NE7 30.24R WCI 22  

 
   
..OHIO
 
 
 
CITY SKY/WX TMP DP RH WIND PRES REMARKS  
CINCINNATI FAIR 29 14 53 NE10 30.34R WCI 20  
DAYTON FAIR 26 16 65 N8 30.37R WCI 18  
TOLEDO FAIR 26 13 57 N7 30.41R WCI 18  
DEFIANCE FAIR 24 14 65 N6 30.41R WCI 17  
FINDLAY FAIR 26 19 74 N6 30.38R WCI 19  
LIMA FAIR 25 18 74 CALM 30.38R  
WRIGHT-PAT AFB FAIR 25 15 66 N8 30.37R WCI 16  
COLUMBUS FAIR 26 12 55 VRB7 30.36R WCI 18  
CLEVELAND FAIR 30 19 63 N13 30.39R WCI 20  

 
   
..MICHIGAN
 
 
 
CITY SKY/WX TMP DP RH WIND PRES REMARKS  
DETROIT FAIR 25 12 58 N5 30.42R WCI 19  
GRAND RAPIDS FAIR 23 13 65 E3 30.44R  
LANSING FAIR 23 12 62 NW3 30.44R  
KALAMAZOO FAIR 26 6 42 NE3 30.43R  
BATTLE CREEK FAIR 25 7 46 N3 30.42R  
MARSHALL FAIR 24 9 51 CALM 30.42R  
JACKSON FAIR 25 11 55 N5 30.42R WCI 19  
BENTON HARBOR FAIR 24 10 55 E6 30.44R WCI 17  
STURGIS FAIR 27 10 47 NE6 30.41R WCI 21  
COLDWATER FAIR 27 9 46 N7 30.42R WCI 20  
HILLSDALE FAIR 25 8 49 N3 30.39R  

 
   
..OTHER LOCATIONS
 
 
 
CITY SKY/WX TMP DP RH WIND PRES REMARKS  
SAINT LOUIS MO PTCLDY 31 20 63 N5 30.40R WCI 26  
CAPE GIRARDEAU FAIR 39 32 76 N9 30.33R WCI 33  
MILWAUKEE WI FAIR 25 17 72 VRB3 30.44R  
NASHVILLE TN FAIR 39 28 64 N12 30.25R WCI 32  

 
 
 
 
CLICK HERE TO GO TO PREVIOUS BULLETINS.

The Nexlab IN Page Main Text Page